Amsterdam, Netherlands

4:30 AM CEST on October 17, 2017 (GMT +0200)
Schiphol

Weather History for EHAM - November, 2012

Change the Weather History Date:

Friday, November 30, 2012

  Actual Average Record
Temperature  
Mean Temperature 36 °F -  
Max Temperature 45 °F 42 °F 54 °F (2015)
Min Temperature 26 °F 34 °F 22 °F (2016)
Degree Days  
Heating Degree Days 30    
Moisture  
Dew Point 34 °F    
Average Humidity 91    
Maximum Humidity 100    
Minimum Humidity 63    
Precipitation  
Precipitation 0.02 in - - ()
Sea Level Pressure  
Sea Level Pressure 29.79 in    
Wind  
Wind Speed 4 mph ()    
Max Wind Speed 14 mph    
Max Gust Speed -    
Visibility 6.7 miles    
Events Fog , Rain    
Averages and records for this station are not official NWS values.
T = Trace of Precipitation, MM = Missing Value Source: Averaged Metar Reports

Daily Weather History Graph

Daily Weather History Graph

Search for Another Location

Airport or City:

Trip Planner

Search our weather history database for the weather conditions in past years. The results will help you decide how hot, cold, wet, or windy it might be!

Date:

Astronomy

Nov. 30, 2012 Rise Set
Actual Time 8:26 AM CET 4:32 PM CET
Civil Twilight 7:47 AM CET 5:12 PM CET
Nautical Twilight 7:03 AM CET 5:55 PM CET
Astronomical Twilight 6:23 AM CET 6:36 PM CET
Moon 6:13 PM CET (11/30) 9:47 AM CET (11/30)
Length of Visible Light 9h 25m
Length of Day
8h 05m
Full, 97% of the Moon is Illuminated
Nov 30
Full
Dec 6
Last Quarter
Dec 13
New
Dec 20
First Quarter
Dec 28
Full

Hourly Weather History & Observations

Time (CET) Temp. Windchill Dew Point Humidity Pressure Visibility Wind Dir Wind Speed Gust Speed Precip Events Conditions
12:25 AM 33.8 °F 30.8 °F 33.8 °F 100% 29.74 in 6.2 mi WNW 3.5 mph - N/A   Partly Cloudy
12:55 AM 32.0 °F 26.4 °F 30.2 °F 93% 29.74 in 6.2 mi NW 5.8 mph - N/A   Partly Cloudy
1:00 AM 32 °F - 31 °F 95% 29.77 in 7 mi NW 6.7 mph - -   Partly Cloudy
1:25 AM 33.8 °F - 32.0 °F 93% 29.77 in 6.2 mi NNE 1.2 mph - N/A   Partly Cloudy
1:55 AM 32.0 °F - 32.0 °F 100% 29.74 in - Variable 1.2 mph - N/A   Clear
2:25 AM 32.0 °F - 30.2 °F 93% 29.74 in 6.2 mi WSW 2.3 mph - N/A   Partly Cloudy
2:55 AM 32.0 °F 28.7 °F 30.2 °F 93% 29.77 in 6.2 mi WNW 3.5 mph - N/A   Scattered Clouds
3:25 AM 32.0 °F - 32.0 °F 100% 29.74 in - WNW 2.3 mph - N/A   Clear
3:55 AM 30.2 °F - 30.2 °F 100% 29.74 in - West 1.2 mph - N/A   Clear
4:00 AM 30 °F - 30 °F 98% 29.77 in 7 mi ENE 2.2 mph - -  
4:25 AM 30.2 °F - 30.2 °F 100% 29.74 in - WNW 1.2 mph - N/A   Clear
4:55 AM 30.2 °F - 30.2 °F 100% 29.74 in 6.2 mi WNW 1.2 mph - N/A Fog Shallow Fog
5:25 AM 30.2 °F - 30.2 °F 100% 29.74 in 6.2 mi SW 2.3 mph - N/A Fog Shallow Fog
5:55 AM 30.2 °F - 30.2 °F 100% 29.74 in 6.2 mi Calm Calm - N/A Fog Shallow Fog
6:25 AM 30.2 °F - 28.4 °F 93% 29.77 in 6.2 mi Calm Calm - N/A Fog Shallow Fog
6:55 AM 26.6 °F - 26.6 °F 100% 29.77 in 6.2 mi Variable 2.3 mph - N/A Fog Shallow Fog
7:00 AM 28 °F - 28 °F 97% 29.78 in 0 mi SW 2.2 mph - - Fog Fog
7:25 AM 30.2 °F - 30.2 °F 100% 29.77 in 6.2 mi NW 1.2 mph - N/A Fog Shallow Fog
7:55 AM 30.2 °F - 30.2 °F 100% 29.77 in 6.2 mi East 1.2 mph - N/A Fog Shallow Fog
8:25 AM 28.4 °F - 28.4 °F 100% 29.77 in 6.2 mi SSW 2.3 mph - N/A Fog Shallow Fog
8:55 AM 30.2 °F 26.7 °F 28.4 °F 93% 29.77 in 6.2 mi South 3.5 mph - N/A   Partly Cloudy
9:25 AM 32.0 °F - 32.0 °F 100% 29.80 in - Variable 2.3 mph - N/A   Clear
9:55 AM 32.0 °F 27.5 °F 32.0 °F 100% 29.80 in 6.2 mi SSW 4.6 mph - N/A   Mostly Cloudy
10:00 AM 33 °F - 32 °F 94% 29.81 in 14 mi SSW 4.5 mph - -   Overcast
10:25 AM 33.8 °F 29.6 °F 33.8 °F 100% 29.80 in 6.2 mi South 4.6 mph - N/A   Mostly Cloudy
10:55 AM 37.4 °F 32.8 °F 33.8 °F 87% 29.80 in 6.2 mi South 5.8 mph - N/A   Mostly Cloudy
11:25 AM 39.2 °F 35.0 °F 37.4 °F 93% 29.80 in 6.2 mi South 5.8 mph - N/A   Mostly Cloudy
11:55 AM 42.8 °F 38.6 °F 37.4 °F 81% 29.80 in 6.2 mi SSW 6.9 mph - N/A   Scattered Clouds
12:25 PM 42.8 °F 37.5 °F 35.6 °F 76% 29.80 in 6.2 mi SSW 9.2 mph - N/A   Partly Cloudy
12:55 PM 44.6 °F 39.7 °F 35.6 °F 71% 29.80 in 6.2 mi SSW 9.2 mph - N/A   Partly Cloudy
1:00 PM 44 °F - 36 °F 63% 29.81 in 19 mi SSW 8.9 mph - -   Partly Cloudy
1:25 PM 44.6 °F 39.7 °F 35.6 °F 71% 29.80 in 6.2 mi SW 9.2 mph - N/A   Partly Cloudy
1:55 PM 44.6 °F 39.2 °F 35.6 °F 71% 29.80 in 6.2 mi SW 10.4 mph - N/A   Scattered Clouds
2:25 PM 42.8 °F 37.0 °F 35.6 °F 76% 29.80 in 6.2 mi SSW 10.4 mph - N/A   Partly Cloudy
2:55 PM 42.8 °F 37.5 °F 37.4 °F 81% 29.80 in 6.2 mi SW 9.2 mph - N/A Rain Light Rain Showers
3:25 PM 42.8 °F 37.5 °F 35.6 °F 76% 29.80 in 6.2 mi SW 9.2 mph - N/A   Scattered Clouds
3:55 PM 42.8 °F 35.8 °F 35.6 °F 76% 29.80 in 6.2 mi WSW 13.8 mph - N/A Rain Light Rain Showers
4:00 PM 42 °F - 36 °F 71% 29.81 in 17 mi SW 11.2 mph - - Rain Light Drizzle
4:25 PM 41.0 °F 34.7 °F 35.6 °F 81% 29.80 in 6.2 mi SW 10.4 mph - N/A Rain Light Rain Showers
4:55 PM 39.2 °F 33.6 °F 37.4 °F 93% 29.80 in 6.2 mi SW 8.1 mph - N/A Rain Light Rain Showers
5:25 PM 39.2 °F 33.0 °F 37.4 °F 93% 29.80 in 6.2 mi SSW 9.2 mph - N/A Rain Light Rain Showers
5:55 PM 39.2 °F 33.6 °F 35.6 °F 87% 29.80 in 6.2 mi South 8.1 mph - N/A   Scattered Clouds
6:25 PM 39.2 °F 33.0 °F 37.4 °F 93% 29.80 in 6.2 mi South 9.2 mph - N/A   Scattered Clouds
6:55 PM 37.4 °F 31.4 °F 35.6 °F 93% 29.80 in 6.2 mi SSW 8.1 mph - N/A   Partly Cloudy
7:00 PM 37 °F - 36 °F 92% 29.83 in 28 mi SSW 8.9 mph - - Rain Rain
7:25 PM 35.6 °F 29.9 °F 33.8 °F 93% 29.80 in 6.2 mi SSW 6.9 mph - N/A Rain Light Rain Showers
7:55 PM 37.4 °F 32.8 °F 37.4 °F 100% 29.83 in 6.2 mi South 5.8 mph - N/A Rain Light Rain Showers
8:25 PM 37.4 °F 33.8 °F 35.6 °F 93% 29.83 in 6.2 mi South 4.6 mph - N/A Rain Light Rain Showers
8:55 PM 39.2 °F 34.2 °F 37.4 °F 93% 29.83 in 4.3 mi WNW 6.9 mph - N/A Rain Light Rain Showers
9:25 PM 39.2 °F 37.0 °F 35.6 °F 87% 29.83 in 6.2 mi SSE 3.5 mph - N/A Rain Light Rain Showers
9:55 PM 37.4 °F - 35.6 °F 93% 29.83 in 6.2 mi SSE 2.3 mph - N/A   Partly Cloudy
10:00 PM 36 °F - 35 °F 97% 29.85 in 28 mi South 2.2 mph - - Rain Rain
10:25 PM 35.6 °F 31.7 °F 35.6 °F 100% 29.83 in 6.2 mi SW 4.6 mph - N/A   Partly Cloudy
10:55 PM 35.6 °F 30.7 °F 33.8 °F 93% 29.83 in 6.2 mi SSW 5.8 mph - N/A   Partly Cloudy
11:25 PM 37.4 °F 32.8 °F 35.6 °F 93% 29.86 in 6.2 mi SW 5.8 mph - N/A   Partly Cloudy
11:55 PM 37.4 °F 32.1 °F 37.4 °F 100% 29.86 in 6.2 mi West 6.9 mph - N/A Rain Light Rain Showers